Location: Cicognara
(44.9500°N, 10.4667°E)
Time: 14:07:59
(UTC+00:00)

SL-16 R/B - Visible Passes

Search period start: 22 October 2021 00:00
Search period end: 01 November 2021 00:00
Orbit: 840 x 850 km, 71.0° (Epoch: 21 October)

Date Brightness Start Highest point End Pass type
(mag) Time Alt. Az. Time Alt. Az. Time Alt. Az.
24 Oct 4.5 05:01:17 10° N 05:05:31 21° NE 05:09:44 10° E visible
25 Oct 4.5 04:47:13 10° N 04:51:22 20° NE 04:55:31 10° E visible
26 Oct 4.5 04:33:07 10° N 04:37:14 20° NE 04:41:18 10° E visible
27 Oct 4.6 04:19:03 10° N 04:23:05 19° NE 04:27:05 10° E visible
28 Oct 4.6 04:04:58 10° N 04:08:55 19° NE 04:12:52 10° E visible
29 Oct 4.6 03:50:54 10° N 03:54:47 18° NE 03:58:38 10° E visible
30 Oct 4.7 03:36:50 10° N 03:40:37 18° NE 03:44:25 10° E visible
30 Oct 2.3 05:19:52 10° NNW 05:25:37 87° ENE 05:31:18 10° SSE visible
31 Oct 4.7 03:22:45 10° N 03:26:28 17° NE 03:30:11 10° E visible
31 Oct 2.3 05:05:45 10° NNW 05:11:29 85° ENE 05:17:11 10° SSE visible
